Vertical_Velocity
-1 -1 -1 -1 -1 -1 -1 -1 -1 -1 -1 -2 -2 -2 -2 -2 -2 1 -3 -1 -1 -2 -1 -2 -2 -2 -2 -1 -1 1 1 0 -1
-0 -0 -1 -1 -0 -2 -1 -2 -2 -0 -2 -2 -1 -2 -1 -2 -1 -3 -1 -1 -0 -1 -1 -0 -0 1 -1 -1 -1 -1 -1 -0 0
0 -0 0 -1 -1 -1 -1 -1 -1 -2 -2 -1 -1 -1 -1 -2 1 -0 -0 -1 -2 -2 -1 -1 -1 -3 -1 0 1 1 1 0 0
-1 -1 0 -1 -1 -1 -1 -1 -1 -1 -1 -1 -1 -1 -1 -2 0 -0 -1 -1 -1 -2 -1 -0 1 2 1 0 -1 -1 -0 -0 0
-1 -0 -0 -1 -1 -1 -1 -1 -1 -2 -2 -1 -0 -2 -2 1 -1 -0 0 -1 -1 -1 -2 -2 -2 -1 -1 -1 -1 -1 -1 -2 -1
-1 -1 -1 -0 -1 -1 -1 -2 -1 -2 -2 -2 -1 -2 -1 -3 -1 -1 -1 -0 -1 -1 -1 -1 -2 -2 -2 -2 -1 -2 -0 -0 -0
1 -0 -1 -1 -0 -1 -1 -2 -1 -2 -2 -2 -1 -1 -1 -3 -1 -1 -0 -0 -1 -2 -0 -1 -1 -3 -1 0 -1 0 -1 1 0
-1 -1 0 -2 -1 -0 -1 -0 -1 1 -2 -1 -0 -1 -0 -2 -2 -1 -2 -2 -2 -1 -1 -2 -0 -1 -3 -2 -2 -1 -2 -1 -2
-1 -2 -1 1 -3 -1 -0 0 -1 -1 -2 -3 -1 -1 1 -4 -3 -2 -1 -1 -2 -3 -2 -2 -2 -0 -3 -4 -3 -3 -1 -2 -2
2 -0 -1 0 1 -3 -2 -1 -0 -1 -1 -2 -3 -0 -0 -2 -3 -2 -2 -2 -1 -1 -1 -3 -2 -1 -0 -0 -2 -3 -2 -1 -2
2 2 -0 1 0 -1 -2 -2 -1 0 -1 -1 -2 -2 0 0 -2 -3 -2 -2 -1 -1 -1 -1 -2 -1 -2 -1 -1 -2 -2 -4 -3
-1 1 1 -0 0 1 -2 -2 -2 -1 -1 -1 -1 -2 -1 1 -0 -1 -3 -1 -1 -1 -2 -1 -2 -2 -2 -1 -1 -0 -1 -2 -3
-1 0 2 -1 0 2 0 -2 -2 -1 -0 -3 -2 -1 -1 -1 -0 -1 -1 -2 -2 -2 -1 -1 -2 -2 -2 -2 -0 -2 1 0 0
-0 -0 0 2 -0 0 -1 2 -3 -2 -1 0 -3 -2 -2 0 -0 -1 -2 -2 -2 -2 -1 -1 -1 -1 -1 -0 -2 -1 -1 -1 0
1 -1 -1 1 -1 1 -1 3 -1 -1 -2 0 -1 -1 -1 -1 0 -0 -1 -1 -1 -1 -2 -2 -1 -2 -1 -1 -1 -2 -1 -1 -1
1 1 -0 0 -2 0 -2 3 1 -1 -1 -1 -1 -2 -2 -0 -1 0 -1 -1 -1 -2 -2 0 -2 -3 -3 -1 -1 -1 -2 -1 -1
1 2 1 2 0 -0 -1 0 2 0 -1 -1 1 -0 -1 -1 -1 1 -1 -1 -1 -1 -2 -3 0 -0 -3 -2 -1 -3 -1 -2 -1
-0 0 1 1 3 1 1 1 1 0 2 -1 -0 0 1 -2 -2 -2 -1 -1 -2 -1 -1 -1 1 -1 -0 -2 -1 -1 -2 -2 -2
1 1 1 2 -1 1 1 1 2 -2 2 2 -2 -0 -1 -2 -2 -2 -3 -1 -1 -1 -1 -0 -0 -1 -0 -1 -3 -1 -1 -0 -1
2 -0 -2 1 1 1 0 4 2 -0 0 1 0 -1 -2 -2 -2 1 -2 -2 -1 -1 -1 0 -2 -0 -1 0 -3 -1 -2 -2 -1
Height
3167 3167 3167 3168 3168 3168 3167 3167 3167 3166 3165 3165 3164 3162 3161 3160 3159 3159 3158 3158 3158 3158 3157 3157 3157 3157 3157 3157 3157 3157 3158 3158 3158
3168 3168 3168 3168 3168 3169 3168 3168 3168 3167 3167 3166 3165 3164 3162 3161 3160 3159 3159 3158 3158 3158 3157 3157 3156 3157 3157 3156 3156 3156 3157 3157 3157
3169 3169 3169 3168 3168 3168 3168 3168 3168 3167 3167 3166 3165 3164 3163 3161 3161 3160 3159 3158 3158 3158 3157 3157 3156 3156 3156 3156 3156 3156 3156 3156 3156
3169 3168 3168 3168 3168 3168 3168 3168 3167 3167 3167 3166 3165 3164 3163 3162 3161 3160 3159 3159 3158 3158 3157 3157 3156 3156 3156 3155 3155 3155 3155 3155 3155
3168 3168 3169 3168 3168 3168 3168 3168 3168 3167 3167 3166 3166 3165 3164 3163 3161 3160 3160 3159 3158 3157 3157 3157 3156 3156 3156 3155 3154 3154 3154 3154 3154
3168 3169 3168 3168 3168 3168 3168 3168 3167 3167 3167 3166 3165 3165 3164 3163 3161 3160 3160 3159 3158 3157 3157 3157 3156 3156 3155 3155 3154 3154 3153 3153 3153
3169 3168 3169 3168 3168 3168 3167 3167 3167 3167 3167 3166 3166 3165 3165 3163 3162 3160 3160 3159 3159 3158 3157 3157 3156 3155 3155 3155 3154 3154 3153 3152 3152
3168 3168 3167 3168 3168 3168 3168 3167 3166 3167 3167 3166 3166 3165 3165 3164 3163 3161 3160 3159 3159 3158 3158 3157 3156 3157 3156 3155 3154 3154 3153 3152 3151
3168 3167 3167 3167 3168 3168 3168 3167 3166 3166 3166 3166 3166 3166 3166 3164 3163 3162 3161 3160 3159 3158 3158 3157 3157 3157 3156 3156 3155 3154 3153 3152 3151
3167 3165 3166 3167 3167 3167 3168 3168 3166 3166 3165 3165 3166 3166 3166 3164 3164 3162 3162 3161 3160 3159 3158 3157 3157 3157 3156 3156 3155 3154 3153 3151 3150
3167 3166 3163 3165 3166 3166 3166 3167 3167 3166 3164 3164 3165 3165 3166 3165 3164 3163 3162 3161 3161 3160 3159 3158 3156 3156 3155 3155 3154 3153 3152 3151 3150
3166 3166 3164 3163 3164 3164 3165 3166 3166 3166 3165 3163 3163 3164 3165 3165 3164 3163 3162 3161 3161 3160 3159 3158 3157 3156 3155 3154 3153 3152 3151 3151 3149
3163 3164 3163 3162 3163 3161 3163 3164 3164 3164 3165 3164 3162 3162 3163 3163 3164 3163 3162 3161 3160 3159 3159 3158 3157 3156 3155 3154 3153 3151 3150 3149 3148
3160 3161 3162 3162 3161 3160 3160 3161 3162 3163 3163 3163 3162 3161 3161 3162 3162 3162 3161 3160 3159 3158 3158 3157 3156 3155 3154 3153 3152 3151 3150 3148 3147
3158 3158 3159 3160 3160 3159 3158 3159 3160 3161 3161 3161 3161 3160 3159 3159 3159 3160 3159 3159 3158 3157 3156 3155 3155 3154 3153 3152 3151 3149 3148 3147 3145
3154 3155 3156 3157 3157 3157 3157 3157 3158 3158 3159 3159 3159 3159 3158 3157 3157 3157 3157 3156 3156 3154 3154 3154 3152 3151 3150 3149 3148 3147 3146 3145 3143
3150 3151 3152 3153 3154 3154 3155 3155 3155 3156 3156 3156 3157 3157 3157 3156 3155 3155 3154 3153 3152 3151 3150 3148 3149 3148 3147 3146 3145 3144 3143 3142 3140
3145 3147 3148 3149 3150 3151 3151 3152 3153 3153 3153 3153 3155 3154 3154 3153 3152 3152 3151 3150 3149 3148 3146 3145 3144 3144 3143 3142 3141 3140 3139 3137 3136
3140 3141 3143 3144 3146 3147 3147 3148 3149 3150 3150 3150 3150 3150 3150 3150 3150 3148 3147 3146 3145 3143 3142 3141 3139 3139 3139 3137 3136 3135 3134 3132 3130
3134 3136 3138 3140 3141 3142 3143 3144 3145 3146 3146 3146 3147 3147 3146 3145 3145 3145 3143 3142 3141 3139 3138 3136 3135 3134 3135 3133 3131 3130 3129 3127 3125